| time (UTC) | temp F | wind direction | speed knots | gust knots | rain 1hr in | rain 24hr in | rain mn in | humidity % | barometer mb |
| 20260906051820 | 61 | 290 | 8.7 | 0.0 | 0.00 | 0.00 | 0.00 | 68 | 1019.0 |
| 20260906050436 | 61 | 290 | 8.7 | 0.0 | 0.00 | 0.00 | 0.00 | 68 | 1019.0 |
| 20260906044936 | 59 | 300 | 8.7 | 0.0 | 0.00 | 0.00 | 0.00 | 72 | 1018.0 |
| 20260906043425 | 59 | 290 | 8.7 | 0.0 | 0.00 | 0.00 | 0.00 | 77 | 1019.0 |
| 20260906041937 | 59 | 290 | 8.7 | 0.0 | 0.00 | 0.00 | 0.00 | 77 | 1019.0 |
| 20260906040340 | 59 | 290 | 8.7 | 0.0 | 0.00 | 0.00 | 0.00 | 77 | 1019.0 |
| 20260906034836 | 57 | 310 | 13.0 | 0.0 | 0.00 | 0.00 | 0.00 | 82 | 1018.0 |
| 20260906033437 | 57 | 310 | 13.0 | 0.0 | 0.00 | 0.00 | 0.00 | ||
| 20260906031936 | 61 | 290 | 7.0 | 0.0 | 0.00 | 0.00 | 0.00 | 72 | 1018.0 |
| 20260906030436 | 61 | 290 | 7.0 | 0.0 | 0.00 | 0.00 | 0.00 | 72 | 1018.0 |
| 20260906024847 | 59 | 260 | 8.7 | 0.0 | 0.00 | 0.00 | 0.00 | 82 | 1017.0 |
| 20260906023320 | 59 | 260 | 8.7 | 0.0 | 0.00 | 0.00 | 0.00 | 82 | 1017.0 |
| 20260906021827 | 57 | 260 | 7.8 | 0.0 | 0.00 | 0.00 | 0.00 | 82 | 1017.0 |
| 20260906020321 | 57 | 260 | 7.8 | 0.0 | 0.00 | 0.00 | 0.00 | 82 | 1017.0 |
| 20260906014821 | 57 | 250 | 6.1 | 0.0 | 0.00 | 0.00 | 0.00 | 82 | 1018.0 |
| 20260906013437 | 57 | 250 | 6.1 | 0.0 | 0.00 | 0.00 | 0.00 | 82 | 1018.0 |
| 20260906011820 | 57 | 230 | 6.1 | 0.0 | 0.00 | 0.00 | 0.00 | 82 | 1017.0 |
| 20260906010320 | 57 | 230 | 6.1 | 0.0 | 0.00 | 0.00 | 0.00 | 82 | 1017.0 |
| 20260906004937 | 59 | 250 | 7.0 | 0.0 | 0.00 | 0.00 | 0.00 | 77 | 1018.0 |
| 20260906003447 | 59 | 250 | 7.0 | 0.0 | 0.00 | 0.00 | 0.00 | 77 | 1018.0 |
| 20260906001936 | 57 | 260 | 7.0 | 0.0 | 0.00 | 0.00 | 0.00 | 82 | 1018.0 |
| 20260906000426 | 57 | 260 | 7.0 | 0.0 | 0.00 | 0.00 | 0.00 | 82 | 1018.0 |
| 20260905234830 | 57 | 260 | 7.0 | 0.0 | 0.00 | 0.00 | 0.00 | 82 | 1018.0 |
| 20260905233320 | 57 | 260 | 7.0 | 0.0 | 0.00 | 0.00 | 0.00 | 82 | 1018.0 |
| 20260905231937 | 55 | 240 | 6.1 | 0.0 | 0.00 | 0.00 | 0.00 | 94 | 1018.0 |
| 20260905230352 | 55 | 240 | 6.1 | 0.0 | 0.00 | 0.00 | 0.00 | 94 | 1018.0 |
| 20260905224937 | 59 | 260 | 7.0 | 0.0 | 0.00 | 0.00 | 0.00 | 77 | 1018.0 |
| 20260905223334 | 59 | 260 | 7.0 | 0.0 | 0.00 | 0.00 | 0.00 | 77 | 1018.0 |
| 20260905221922 | 59 | 270 | 7.8 | 0.0 | 0.00 | 0.00 | 0.00 | 82 | 1018.0 |
| 20260905220437 | 59 | 270 | 7.8 | 0.0 | 0.00 | 0.00 | 0.00 | 82 | 1018.0 |
| 20260905214936 | 57 | 280 | 6.1 | 0.0 | 0.00 | 0.00 | 0.00 | 88 | 1018.0 |
| 20260905213320 | 57 | 280 | 6.1 | 0.0 | 0.00 | 0.00 | 0.00 | 88 | 1018.0 |
| 20260905211820 | 59 | 280 | 7.0 | 0.0 | 0.00 | 0.00 | 0.00 | 82 | 1018.0 |
| 20260905210320 | 59 | 280 | 7.0 | 0.0 | 0.00 | 0.00 | 0.00 | 82 | 1018.0 |
| 20260905204831 | 59 | 290 | 6.1 | 0.0 | 0.00 | 0.00 | 0.00 | 82 | 1018.0 |
| 20260905203320 | 59 | 290 | 6.1 | 0.0 | 0.00 | 0.00 | 0.00 | 82 | 1018.0 |
| 20260905201820 | 59 | 300 | 4.3 | 0.0 | 0.00 | 0.00 | 0.00 | 82 | 1017.0 |
| 20260905200437 | 59 | 300 | 4.3 | 0.0 | 0.00 | 0.00 | 0.00 | 82 | 1017.0 |
| 20260905194928 | 57 | 210 | 1.7 | 0.0 | 0.00 | 0.00 | 0.00 | 94 | 1017.0 |
| 20260905193320 | 57 | 210 | 1.7 | 0.0 | 0.00 | 0.00 | 0.00 | 94 | 1017.0 |
| 20260905191849 | 57 | 1.7 | 0.0 | 0.00 | 0.00 | 0.00 | 94 | 1017.0 | |
| 20260905190321 | 57 | 1.7 | 0.0 | 0.00 | 0.00 | 0.00 | 94 | 1017.0 | |
| 20260905184821 | 59 | 270 | 5.2 | 0.0 | 0.00 | 0.00 | 0.00 | 88 | 1017.0 |
| 20260905183325 | 59 | 270 | 5.2 | 0.0 | 0.00 | 0.00 | 0.00 | 88 | 1017.0 |
| 20260905181820 | 59 | 260 | 4.3 | 0.0 | 0.00 | 0.00 | 0.00 | 88 | 1017.0 |
| 20260905180320 | 59 | 260 | 4.3 | 0.0 | 0.00 | 0.00 | 0.00 | 88 | 1017.0 |
| 20260905174820 | 59 | 330 | 5.2 | 0.0 | 0.00 | 0.00 | 0.00 | 88 | 1016.0 |
| 20260905173320 | 59 | 330 | 5.2 | 0.0 | 0.00 | 0.00 | 0.00 | 88 | 1016.0 |
| 20260905171831 | 59 | 330 | 9.6 | 0.0 | 0.00 | 0.00 | 0.00 | 88 | 1016.0 |
| 20260905170320 | 59 | 330 | 9.6 | 0.0 | 0.00 | 0.00 | 0.00 | 88 | 1016.0 |
| 20260905164820 | 61 | 330 | 9.6 | 0.0 | 0.00 | 0.00 | 0.00 | 88 | 1016.0 |
| 20260905163321 | 61 | 330 | 9.6 | 0.0 | 0.00 | 0.00 | 0.00 | 88 | 1016.0 |
| 20260905161821 | 61 | 320 | 7.8 | 0.0 | 0.00 | 0.00 | 0.00 | 94 | 1016.0 |
| 20260905160321 | 61 | 320 | 7.8 | 0.0 | 0.00 | 0.00 | 0.00 | 94 | 1016.0 |
| 20260905154837 | 63 | 30 | 4.3 | 0.0 | 0.00 | 0.00 | 0.00 | 83 | 1015.0 |
| 20260905153320 | 63 | 30 | 4.3 | 0.0 | 0.00 | 0.00 | 0.00 | 83 | 1015.0 |
| 20260905151821 | 64 | 340 | 6.1 | 0.0 | 0.00 | 0.00 | 0.00 | 73 | 1016.0 |
| 20260905150321 | 64 | 340 | 6.1 | 0.0 | 0.00 | 0.00 | 0.00 | 73 | 1016.0 |
| 20260905144820 | 66 | 330 | 15.6 | 0.0 | 0.00 | 0.00 | 0.00 | 68 | 1016.0 |
| 20260905143320 | 66 | 330 | 15.6 | 0.0 | 0.00 | 0.00 | 0.00 | 68 | 1016.0 |
| 20260905141821 | 68 | 320 | 19.1 | 0.0 | 0.00 | 0.00 | 0.00 | 64 | 1015.0 |
| 20260905140320 | 68 | 320 | 19.1 | 0.0 | 0.00 | 0.00 | 0.00 | 64 | 1015.0 |
| 20260905134934 | 68 | 330 | 19.1 | 0.0 | 0.00 | 0.00 | 0.00 | 69 | 1015.0 |
| 20260905133320 | 68 | 330 | 19.1 | 0.0 | 0.00 | 0.00 | 0.00 | 69 | 1015.0 |
| 20260905131823 | 64 | 330 | 15.6 | 0.0 | 0.00 | 0.00 | 0.00 | 78 | 1015.0 |
| 20260905130342 | 64 | 330 | 15.6 | 0.0 | 0.00 | 0.00 | 0.00 | 78 | 1015.0 |
| 20260905123321 | 70 | 340 | 18.2 | 0.0 | 0.00 | 0.00 | 0.00 | 64 | 1015.0 |
| 20260905121848 | 77 | 350 | 17.4 | 0.0 | 0.00 | 0.00 | 0.00 | 57 | 1015.0 |
| 20260905120321 | 77 | 350 | 17.4 | 0.0 | 0.00 | 0.00 | 0.00 | 57 | 1015.0 |
| 20260905114820 | 82 | 340 | 12.2 | 0.0 | 0.00 | 0.00 | 0.00 | 45 | 1014.0 |
| 20260905113320 | 82 | 340 | 12.2 | 0.0 | 0.00 | 0.00 | 0.00 | 45 | 1014.0 |
| 20260905111839 | 86 | 330 | 8.7 | 0.0 | 0.00 | 0.00 | 0.00 | 38 | 1014.0 |
| 20260905110320 | 86 | 330 | 8.7 | 0.0 | 0.00 | 0.00 | 0.00 | 38 | 1014.0 |
| 20260905104820 | 86 | 300 | 7.8 | 0.0 | 0.00 | 0.00 | 0.00 | 38 | 1013.0 |
| 20260905103320 | 86 | 300 | 7.8 | 0.0 | 0.00 | 0.00 | 0.00 | 38 | 1013.0 |
| 20260905101820 | 84 | 190 | 6.1 | 0.0 | 0.00 | 0.00 | 0.00 | 40 | 1013.0 |
| 20260905100321 | 84 | 190 | 6.1 | 0.0 | 0.00 | 0.00 | 0.00 | 40 | 1013.0 |
| 20260905094937 | 84 | 220 | 7.8 | 0.0 | 0.00 | 0.00 | 0.00 | 37 | 1013.0 |
| 20260905093320 | 84 | 220 | 7.8 | 0.0 | 0.00 | 0.00 | 0.00 | 37 | 1013.0 |
| 20260905091820 | 79 | 200 | 7.0 | 0.0 | 0.00 | 0.00 | 0.00 | 48 | 1013.0 |
| 20260905090320 | 79 | 200 | 7.0 | 0.0 | 0.00 | 0.00 | 0.00 | 48 | 1013.0 |
| 20260905084820 | 79 | 220 | 11.3 | 0.0 | 0.00 | 0.00 | 0.00 | 45 | 1013.0 |
| 20260905083320 | 79 | 220 | 11.3 | 0.0 | 0.00 | 0.00 | 0.00 | 45 | 1013.0 |
| 20260905081820 | 79 | 210 | 12.2 | 0.0 | 0.00 | 0.00 | 0.00 | 48 | 1013.0 |
| 20260905080321 | 79 | 210 | 12.2 | 0.0 | 0.00 | 0.00 | 0.00 | 48 | 1013.0 |
| 20260905074820 | 75 | 230 | 12.2 | 0.0 | 0.00 | 0.00 | 0.00 | 50 | 1014.0 |
| 20260905073329 | 75 | 230 | 12.2 | 0.0 | 0.00 | 0.00 | 0.00 | 50 | 1014.0 |
| 20260905071821 | 77 | 240 | 15.6 | 0.0 | 0.00 | 0.00 | 0.00 | 47 | 1014.0 |
| 20260905070320 | 77 | 240 | 15.6 | 0.0 | 0.00 | 0.00 | 0.00 | 47 | 1014.0 |
| 20260905064821 | 75 | 240 | 18.2 | 0.0 | 0.00 | 0.00 | 0.00 | 50 | 1014.0 |
| 20260905063321 | 75 | 240 | 18.2 | 0.0 | 0.00 | 0.00 | 0.00 | 50 | 1014.0 |
| 20260905061821 | 73 | 230 | 13.0 | 0.0 | 0.00 | 0.00 | 0.00 | 53 | 1014.0 |
| 20260905060321 | 73 | 230 | 13.0 | 0.0 | 0.00 | 0.00 | 0.00 | 53 | 1014.0 |
| 20260905054821 | 72 | 240 | 14.8 | 0.0 | 0.00 | 0.00 | 0.00 | 57 | 1014.0 |
| 20260905053321 | 72 | 240 | 14.8 | 0.0 | 0.00 | 0.00 | 0.00 | 57 | 1014.0 |